Content
SEND FEEDBACK

Daily
Averages
Monthly
Summary
Canada

VANCOUVER, BRITISH COLUMBIA


Home > North America > Canada > British Columbia
Elevation: 7 feet     Latitude: 49 11N     Longitude: 123 10W

WEATHER
 
SELECT A DAY
Number of Records: 249,332;   Date Range: 5/15/97 - 7/30/14
 
SHARE

PRINT THIS DATA

[ ← Previous Day ]
WEATHER ALMANAC - DECEMBER 25, 2013
[ Next Day → ]
[ °C ]   °F
Weather ElementAverageHighLow
Temperature37.9 °F42.8 °F (12:35 pm)32 °F (12:35 am)
Dewpoint35.5 °F39.2 °F (10:35 pm)32 °F (12:35 am)
Humidity91.4 %100 % (12:35 am)81 % (12:15 pm)
Barometer30.45 in30.53 in (12:35 am)30.39 in (9:55 pm)
Wind Speed0.1 mph3.5 mph (2:15 pm)
Weather ElementAverage
Visibility8.7 mi
Wind DirectionN (2.5 °)

Weather ElementTotal
Precipitation---
Heating Degree Days27.6 (Base 65)
Averaged from 71 records on December 25, 2013
WEATHER CONDITIONS BREAKOUT
WIND DIRECTION BREAKOUT
WEATHER BY HOUR - DECEMBER 25, 2013
[ °C ]   °F
Local TimeTemperatureDewpointHumidityBarometerVisibilityWind DirectionWind SpeedGust SpeedPrecipitationEventsConditions
12:35 AM32.0 °F32.0 °F100 %30.53 in7.0 miCalmClear
12:55 AM32.0 °F32.0 °F100 %30.53 in5.0 miCalmClear
1:15 AM32.0 °F32.0 °F100 %30.53 in5.0 miCalmClear
1:35 AM32.0 °F32.0 °F100 %30.52 in6.0 miCalmClear
1:55 AM32.0 °F32.0 °F100 %30.52 in5.0 miCalmClear
2:15 AM32.0 °F32.0 °F100 %30.51 in6.0 miCalmClear
2:35 AM32.0 °F32.0 °F100 %30.51 in4.0 miCalmClear
2:55 AM33.8 °F33.8 °F100 %30.51 in5.0 miCalmClear
3:15 AM33.8 °F33.8 °F100 %30.51 in3.0 miCalmClear
3:35 AM32.0 °F32.0 °F100 %30.50 in0.8 miCalmMist
3:55 AM32.0 °F32.0 °F100 %30.50 in2.0 miNorthClear
4:15 AM32.0 °F32.0 °F100 %30.51 in3.0 miCalmClear
4:35 AM32.0 °F32.0 °F100 %30.51 in4.0 miCalmClear
4:55 AM32.0 °F32.0 °F100 %30.49 in5.0 miCalmClear
5:15 AM32.0 °F32.0 °F100 %30.48 in5.0 miCalmClear
5:35 AM33.8 °F33.8 °F100 %30.49 in9.0 miCalmScattered Clouds
5:55 AM33.8 °F33.8 °F100 %30.48 in9.0 miCalmScattered Clouds
6:15 AM37.4 °F35.6 °F93 %30.48 in10.0 miCalmPartly Cloudy
6:35 AM37.4 °F35.6 °F93 %30.48 in10.0 miCalmPartly Cloudy
6:55 AM37.4 °F33.8 °F87 %30.48 in10.0 miCalmScattered Clouds
7:15 AM37.4 °F35.6 °F93 %30.47 in10.0 miCalmScattered Clouds
7:35 AM35.6 °F35.6 °F100 %30.47 in10.0 miCalmMostly Cloudy
7:55 AM35.6 °F33.8 °F93 %30.46 in10.0 miCalmMostly Cloudy
8:15 AM37.4 °F33.8 °F87 %30.46 in10.0 miCalmMostly Cloudy
8:35 AM35.6 °F35.6 °F100 %30.47 in10.0 miCalmOvercast
8:55 AM37.4 °F35.6 °F93 %30.46 in10.0 miCalmOvercast
9:15 AM37.4 °F35.6 °F93 %30.46 in10.0 miCalmOvercast
9:35 AM37.4 °F35.6 °F93 %30.45 in10.0 miCalmOvercast
9:55 AM37.4 °F35.6 °F93 %30.45 in10.0 miCalmMostly Cloudy
10:15 AM39.2 °F37.4 °F93 %30.46 in10.0 miCalmScattered Clouds
10:35 AM39.2 °F37.4 °F93 %30.47 in10.0 miCalmMostly Cloudy
10:55 AM39.2 °F37.4 °F93 %30.44 in10.0 miCalmScattered Clouds
11:15 AM41.0 °F37.4 °F87 %30.44 in10.0 miCalmPartly Cloudy
11:35 AM41.0 °F37.4 °F87 %30.44 in10.0 miCalmMostly Cloudy
11:55 AM41.0 °F37.4 °F87 %30.43 in10.0 miCalmMostly Cloudy
12:15 PM41.0 °F35.6 °F81 %30.43 in10.0 miCalmMostly Cloudy
12:35 PM42.8 °F37.4 °F81 %30.43 in10.0 miCalmMostly Cloudy
12:55 PM41.0 °F37.4 °F87 %30.42 in10.0 miCalmOvercast
1:15 PM41.0 °F37.4 °F87 %30.42 in10.0 miCalmOvercast
1:35 PM41.0 °F37.4 °F87 %30.42 in10.0 miCalmOvercast
1:55 PM41.0 °F35.6 °F81 %30.42 in10.0 miCalmOvercast
2:15 PM41.0 °F35.6 °F81 %30.42 in10.0 miEast (90°)3.5 mphOvercast
2:35 PM41.0 °F35.6 °F81 %30.42 in10.0 miEast (90°)3.5 mphMostly Cloudy
2:55 PM41.0 °F35.6 °F81 %30.42 in10.0 miCalmMostly Cloudy
3:15 PM41.0 °F35.6 °F81 %30.41 in10.0 miCalmMostly Cloudy
3:35 PM41.0 °F35.6 °F81 %30.42 in10.0 miCalmMostly Cloudy
3:55 PM41.0 °F35.6 °F81 %30.41 in10.0 miCalmMostly Cloudy
4:15 PM41.0 °F35.6 °F81 %30.41 in10.0 miCalmMostly Cloudy
4:35 PM41.0 °F35.6 °F81 %30.42 in10.0 miCalmOvercast
4:55 PM41.0 °F37.4 °F87 %30.42 in10.0 miCalmOvercast
5:15 PM41.0 °F35.6 °F81 %30.42 in10.0 miCalmOvercast
5:35 PM41.0 °F35.6 °F81 %30.41 in10.0 miCalmOvercast
5:55 PM41.0 °F37.4 °F87 %30.41 in10.0 miCalmOvercast
6:15 PM41.0 °F37.4 °F87 %30.40 in10.0 miCalmOvercast
6:35 PM39.2 °F37.4 °F93 %30.41 in10.0 miCalmRainLight Rain
6:55 PM39.2 °F37.4 °F93 %30.41 in7.0 miCalmRainLight Rain
7:15 PM39.2 °F37.4 °F93 %30.41 in9.0 miCalmMostly Cloudy
7:35 PM39.2 °F37.4 °F93 %30.41 in10.0 miCalmScattered Clouds
7:55 PM39.2 °F37.4 °F93 %30.41 in10.0 miCalmScattered Clouds
8:15 PM39.2 °F37.4 °F93 %30.40 in10.0 miCalmClear
8:35 PM39.2 °F37.4 °F93 %30.40 in10.0 miCalmMostly Cloudy
8:55 PM41.0 °F37.4 °F87 %30.40 in10.0 miNorthMostly Cloudy
9:15 PM41.0 °F37.4 °F87 %30.40 in10.0 miCalmMostly Cloudy
9:35 PM39.2 °F37.4 °F93 %30.40 in10.0 miCalmOvercast
9:55 PM41.0 °F35.6 °F81 %30.39 in10.0 miCalmMostly Cloudy
10:15 PM39.2 °F37.4 °F93 %30.40 in10.0 miCalmMostly Cloudy
10:35 PM39.2 °F39.2 °F100 %30.40 in10.0 miCalmOvercast
10:55 PM39.2 °F37.4 °F93 %30.39 in10.0 miCalmMostly Cloudy
11:15 PM41.0 °F37.4 °F87 %30.39 in10.0 miCalmMostly Cloudy
11:35 PM39.2 °F37.4 °F93 %30.39 in10.0 miCalmOvercast
11:55 PM39.2 °F37.4 °F93 %30.39 in9.0 miCalmRainLight Rain
Hourly data recorded from CZBB, located miles away from Vancouver, British Columbia







STORIES FROM OUR PARTNERS